Date String (YYYY-MM-DD hh:mm:ss) UTC,Instrument flags,Ambient pressure (hPa),Sample flow (lpm),Bypass flow (lpm),Sample temperature (°C),Ambient temperature (°C),ASC tube jacket temperature (°C),LED temperature (°C),Box temperature (°C),Sample RH (%),Span deviation,Mass concentration (μg/m³),Mass concentration (μg/m³),Mass concentration (μg/m³)
DateTimeUTC,F1_M11,P_M11,Q1_M11,Q2_M11,T1_M11,T2_M11,T3_M11,T4_M11,T5_M11,U1_M11,ZSPAN_M11,X0_M11,X2_M11,X1_M11
2022-05-27 06:00:00,,0826.4,4.99,0.00,29.9,28.9,00.0,38.8,31.8,11.4,0000.0,0005.50,0002.38,0001.65
2022-05-27 06:01:00,,0826.5,5.00,0.00,30.0,28.9,00.0,38.8,31.8,11.5,0000.0,0005.26,0002.37,0001.65
2022-05-27 06:02:00,,0826.5,5.01,0.00,30.0,28.9,00.0,38.8,31.8,11.4,0000.0,0005.21,0002.38,0001.64
2022-05-27 06:03:00,,0826.5,5.01,0.00,30.0,28.9,00.0,38.8,31.8,11.4,0000.0,0005.25,0002.41,0001.65
2022-05-27 06:04:00,,0826.5,4.99,0.00,30.0,28.9,00.0,38.8,31.8,11.4,0000.0,0005.16,0002.40,0001.66
2022-05-27 06:05:00,,0826.4,5.00,0.00,30.0,28.7,00.0,38.8,31.8,11.4,0000.0,0005.33,0002.44,0001.66
2022-05-27 06:06:00,,0826.3,5.02,0.00,29.9,27.7,00.0,38.7,31.5,11.4,0000.0,0005.40,0002.45,0001.65
2022-05-27 06:07:00,,0826.4,4.99,0.00,29.8,27.2,00.0,38.7,31.4,11.5,0000.0,0005.04,0002.45,0001.65
2022-05-27 06:08:00,,0826.3,5.01,0.00,29.7,27.1,00.0,38.7,31.3,11.6,0000.0,0004.12,0002.52,0001.65
2022-05-27 06:09:00,,0826.3,4.99,0.00,29.6,27.2,00.0,38.6,31.2,11.6,0000.0,0004.28,0002.55,0001.65
2022-05-27 06:10:00,,0826.3,5.00,0.00,29.6,27.3,00.0,38.6,31.2,11.7,0000.0,0004.35,0002.56,0001.66
2022-05-27 06:11:00,,0826.3,5.00,0.00,29.6,27.5,00.0,38.6,31.2,11.8,0000.0,0005.00,0002.48,0001.66
2022-05-27 06:12:00,,0826.3,5.00,0.00,29.5,27.6,00.0,38.6,31.2,11.8,0000.0,0005.32,0002.49,0001.65
2022-05-27 06:13:00,,0826.3,5.00,0.00,29.5,27.7,00.0,38.5,31.3,11.9,0000.0,0005.34,0002.49,0001.65
2022-05-27 06:14:00,,0826.3,4.99,0.00,29.5,27.8,00.0,38.5,31.3,11.8,0000.0,0005.36,0002.47,0001.65
2022-05-27 06:15:00,,0826.3,5.01,0.00,29.5,27.9,00.0,38.5,31.3,11.7,0000.0,0005.48,0002.46,0001.65
2022-05-27 06:16:00,,0826.3,5.00,0.00,29.5,28.0,00.0,38.5,31.3,11.7,0000.0,0005.38,0002.40,0001.65
2022-05-27 06:17:00,,0826.3,5.00,0.00,29.5,28.1,00.0,38.5,31.3,11.8,0000.0,0005.29,0002.36,0001.65
2022-05-27 06:18:00,,0826.3,4.99,0.00,29.5,28.1,00.0,38.5,31.3,11.8,0000.0,0005.24,0002.35,0001.64
2022-05-27 06:19:00,,0826.3,4.99,0.00,29.5,28.2,00.0,38.5,31.3,11.8,0000.0,0005.00,0002.27,0001.63
2022-05-27 06:20:00,,0826.3,5.00,0.00,29.5,28.3,00.0,38.5,31.4,11.8,0000.0,0005.04,0002.29,0001.63
2022-05-27 06:21:00,,0826.3,5.00,0.00,29.5,28.3,00.0,38.5,31.4,11.7,0000.0,0005.26,0002.33,0001.62
2022-05-27 06:22:00,,0826.2,5.00,0.00,29.6,28.3,00.0,38.5,31.4,11.6,0000.0,0004.56,0002.38,0001.62
2022-05-27 06:23:00,,0826.2,5.00,0.00,29.6,28.4,00.0,38.5,31.4,11.6,0000.0,0004.26,0002.35,0001.62
2022-05-27 06:24:00,,0826.2,4.99,0.00,29.6,28.4,00.0,38.5,31.4,11.7,0000.0,0004.50,0002.34,0001.61
2022-05-27 06:25:00,,0826.2,5.00,0.00,29.6,28.4,00.0,38.5,31.4,11.7,0000.0,0005.07,0002.37,0001.60
2022-05-27 06:26:00,,0826.2,4.99,0.00,29.6,28.4,00.0,38.5,31.4,11.6,0000.0,0005.35,0002.43,0001.60
2022-05-27 06:27:00,,0826.2,5.01,0.00,29.6,28.5,00.0,38.5,31.4,11.6,0000.0,0005.30,0002.47,0001.60
2022-05-27 06:28:00,,0826.2,5.01,0.00,29.6,28.5,00.0,38.5,31.5,11.6,0000.0,0005.70,0002.49,0001.58
2022-05-27 06:29:00,,0826.2,5.00,0.00,29.6,28.5,00.0,38.5,31.5,11.5,0000.0,0006.28,0002.49,0001.57
2022-05-27 06:30:00,,0826.2,5.01,0.00,29.6,28.5,00.0,38.5,31.5,11.5,0000.0,0006.24,0002.48,0001.57
2022-05-27 06:31:00,,0826.2,4.99,0.00,29.7,28.5,00.0,38.5,31.5,11.5,0000.0,0006.07,0002.43,0001.57
2022-05-27 06:32:00,,0826.2,5.01,0.00,29.7,28.5,00.0,38.5,31.5,11.5,0000.0,0005.95,0002.40,0001.58
2022-05-27 06:33:00,,0826.2,5.00,0.00,29.7,28.6,00.0,38.5,31.5,11.5,0000.0,0005.82,0002.34,0001.58
2022-05-27 06:34:00,,0826.2,5.00,0.00,29.7,28.6,00.0,38.5,31.5,11.4,0000.0,0005.77,0002.35,0001.58
2022-05-27 06:35:00,,0826.3,5.01,0.00,29.7,28.6,00.0,38.6,31.5,11.4,0000.0,0005.75,0002.41,0001.58
2022-05-27 06:36:00,,0826.2,4.99,0.00,29.7,28.6,00.0,38.6,31.5,11.4,0000.0,0005.30,0002.42,0001.59
2022-05-27 06:37:00,,0826.3,5.00,0.00,29.7,28.6,00.0,38.6,31.6,11.4,0000.0,0006.10,0002.43,0001.60
2022-05-27 06:38:00,,0826.3,5.01,0.00,29.7,28.6,00.0,38.6,31.6,11.5,0000.0,0006.50,0002.42,0001.60
2022-05-27 06:39:00,,0826.3,5.01,0.00,29.7,28.7,00.0,38.6,31.6,11.7,0000.0,0006.45,0002.44,0001.60
2022-05-27 06:40:00,,0826.3,4.99,0.00,29.8,28.7,00.0,38.6,31.6,13.0,0000.0,0005.97,0002.45,0001.61
2022-05-27 06:41:00,,0826.4,4.99,0.00,29.8,28.7,00.0,38.6,31.6,12.5,0000.0,0006.22,0002.52,0001.62
2022-05-27 06:42:00,,0826.4,5.01,0.00,29.8,28.8,00.0,38.6,31.7,12.3,0000.0,0006.27,0002.54,0001.62
2022-05-27 06:43:00,,0826.3,5.00,0.00,29.8,28.8,00.0,38.7,31.7,12.3,0000.0,0006.23,0002.55,0001.64
2022-05-27 06:44:00,,0826.3,5.00,0.00,29.8,28.8,00.0,38.7,31.7,12.6,0000.0,0006.31,0002.57,0001.64
2022-05-27 06:45:00,,0826.4,5.00,0.00,29.8,28.8,00.0,38.7,31.7,12.8,0000.0,0006.36,0002.58,0001.65
2022-05-27 06:46:00,,0826.4,5.01,0.00,29.9,28.9,00.0,38.7,31.7,12.7,0000.0,0006.41,0002.59,0001.68
2022-05-27 06:47:00,,0826.4,5.00,0.00,29.9,28.9,00.0,38.7,31.7,12.7,0000.0,0006.17,0002.55,0001.69
2022-05-27 06:48:00,,0826.4,4.99,0.00,29.9,28.9,00.0,38.7,31.8,12.6,0000.0,0005.54,0002.55,0001.69
2022-05-27 06:49:00,,0826.3,5.00,0.00,29.9,28.9,00.0,38.7,31.7,12.5,0000.0,0004.76,0002.56,0001.70
2022-05-27 06:50:00,,0826.4,5.00,0.00,29.9,28.9,00.0,38.7,31.8,12.4,0000.0,0004.78,0002.59,0001.71
2022-05-27 06:51:00,,0826.4,5.00,0.00,29.9,29.0,00.0,38.8,31.7,12.2,0000.0,0004.64,0002.54,0001.72
2022-05-27 06:52:00,,0826.4,5.01,0.00,29.9,29.0,00.0,38.8,31.8,12.4,0000.0,0004.38,0002.50,0001.73
2022-05-27 06:53:00,,0826.4,5.00,0.00,30.0,29.0,00.0,38.8,31.8,12.8,0000.0,0004.74,0002.55,0001.75
2022-05-27 06:54:00,,0826.4,4.99,0.00,30.0,29.0,00.0,38.8,31.8,12.5,0000.0,0004.99,0002.60,0001.75
2022-05-27 06:55:00,,0826.5,5.00,0.00,30.0,29.0,00.0,38.8,31.8,12.5,0000.0,0005.32,0002.61,0001.75
2022-05-27 06:56:00,,0826.5,5.00,0.00,30.0,29.1,00.0,38.8,31.9,12.8,0000.0,0006.11,0002.70,0001.76
2022-05-27 06:57:00,,0826.5,5.00,0.00,30.0,29.1,00.0,38.8,31.9,12.6,0000.0,0007.11,0002.72,0001.75
2022-05-27 06:58:00,,0826.5,5.00,0.00,30.0,29.1,00.0,38.8,31.9,12.7,0000.0,0008.20,0002.70,0001.76
2022-05-27 06:59:00,,0826.5,5.01,0.00,30.0,29.1,00.0,38.9,31.9,12.7,0000.0,0008.49,0002.69,0001.77
